User: anonymous   Login
Location: Unspecified
(0.0000°N, 0.0000°E)
Time: 05:25:39
(UTC+00:00)
Language:

Oscar 19 - Orbit

View from above orbital plane
View from above orbital plane
View from above satellite
View from above satellite

Ground track
Ground track

The orbit data is extracted from the following two-line orbital elements,

1 20442U 90005G   18350.81336713 -.00000009  00000-0  13153-4 0  9992
2 20442  98.6291 288.3238 0011353 336.9156  23.1516 14.32912701510047
Epoch (UTC): 16 December 2018 19:31:14
Eccentricity: 0.0011353
inclination: 98.6291°
perigee height: 774 km
apogee height: 790 km
right ascension of ascending node: 288.3238°
argument of perigee: 336.9156°
revolutions per day: 14.32912701
mean anomaly at epoch: 23.1516°
orbit number at epoch: 51004

The dashed part of the orbit path shows where the satellite is in the earth's shadow,  

DLR